DW1039 Weather Reports


Display with metric or nautical units.
time (UTC)temp
F
wind
direction
speed
MPH
gust
MPH
rain 1hr
in
rain 24hr
in
rain mn
in
humidity
%
barometer
mb
20180522194551 83 222 4.0 11.0 0.00 0.17 0.01 65 1015.1
20180522194051 83 182 2.0 11.0 0.00 0.17 0.01 64 1015.0
20180522193551 83 183 1.0 11.0 0.00 0.17 0.01 62 1015.0
20180522193050 84 166 4.0 9.0 0.00 0.17 0.01 63 1015.2
20180522192550 84 161 1.0 9.0 0.00 0.17 0.01 64 1015.2
20180522192051 84 187 5.0 9.0 0.00 0.17 0.01 63 1015.2
20180522191550 84 178 4.0 10.0 0.00 0.17 0.01 64 1015.3
20180522191050 84 219 3.0 10.0 0.00 0.17 0.01 68 1015.5
20180522190550 84 162 2.0 10.0 0.00 0.17 0.01 65 1015.4
20180522190050 84 170 3.0 5.0 0.00 0.17 0.01 69 1015.4
20180522185550 83 174 1.0 11.0 0.00 0.17 0.01 71 1015.5
20180522185049 83 180 3.0 11.0 0.00 0.17 0.01 67 1015.7
20180522184549 83 242 2.0 11.0 0.00 0.17 0.01 69 1015.8
20180522184050 83 296 2.0 10.0 0.00 0.17 0.01 67 1015.9
20180522183549 82 205 5.0 8.0 0.00 0.17 0.01 68 1015.9
20180522183049 82 176 3.0 10.0 0.00 0.17 0.01 69 1016.0
20180522182549 82 248 7.0 10.0 0.00 0.17 0.01 70 1016.2
20180522182048 82 177 1.0 10.0 0.00 0.17 0.01 70 1016.1
20180522181548 81 184 6.0 10.0 0.00 0.17 0.01 71 1016.2
20180522181048 81 199 2.0 10.0 0.00 0.17 0.01 70 1016.2
20180522180548 80 173 3.0 10.0 0.00 0.17 0.01 73 1016.2
20180522180048 80 221 0.0 7.0 0.00 0.17 0.01 76 1016.3
20180522175548 80 186 7.0 7.0 0.00 0.17 0.01 72 1016.3
20180522175048 80 185 3.0 10.0 0.00 0.17 0.01 74 1016.4
20180522174547 80 167 1.0 10.0 0.00 0.17 0.01 72 1016.4
20180522174048 81 185 4.0 10.0 0.00 0.17 0.01 72 1016.5
20180522173547 80 187 4.0 10.0 0.00 0.17 0.01 74 1016.6
20180522173047 80 201 1.0 7.0 0.00 0.17 0.01 73 1016.5
20180522172547 80 172 1.0 9.0 0.00 0.17 0.01 73 1016.5
20180522172047 80 169 4.0 9.0 0.00 0.17 0.01 73 1016.6
20180522171547 80 182 4.0 7.0 0.00 0.17 0.01 73 1016.5
20180522171047 79 172 2.0 7.0 0.00 0.17 0.01 74 1016.7
20180522170547 79 160 1.0 5.0 0.00 0.17 0.01 76 1017.0
20180522170046 79 171 2.0 5.0 0.00 0.17 0.01 75 1017.0
20180522165546 78 194 1.0 6.0 0.00 0.17 0.01 77 1017.2
20180522165046 78 157 2.0 6.0 0.00 0.17 0.01 77 1017.2
20180522164546 79 180 3.0 6.0 0.00 0.17 0.01 76 1017.2
20180522164046 79 170 2.0 9.0 0.00 0.17 0.01 76 1017.2
20180522163546 78 196 2.0 9.0 0.00 0.17 0.01 77 1017.3
20180522163047 78 190 1.0 9.0 0.00 0.17 0.01 78 1017.3
20180522162546 77 163 4.0 5.0 0.00 0.17 0.01 78 1017.4
20180522162045 77 186 2.0 6.0 0.00 0.17 0.01 79 1017.4
20180522161545 77 178 2.0 6.0 0.00 0.17 0.01 78 1017.5
20180522161045 77 188 6.0 6.0 0.00 0.17 0.01 80 1017.6
20180522160545 77 210 0.0 6.0 0.00 0.17 0.01 80 1017.6
20180522160045 77 178 2.0 6.0 0.00 0.17 0.01 79 1017.6
20180522155544 77 204 4.0 6.0 0.00 0.17 0.01 81 1017.5
20180522155044 76 195 2.0 4.0 0.00 0.17 0.01 82 1017.4
20180522154544 76 200 0.0 5.0 0.00 0.17 0.01 81 1017.5
20180522154044 76 196 2.0 5.0 0.00 0.17 0.01 80 1017.5
20180522153544 76 180 3.0 5.0 0.00 0.17 0.01 80 1017.5
20180522153043 76 215 2.0 5.0 0.00 0.17 0.01 82 1017.5
20180522152544 76 144 0.0 5.0 0.00 0.17 0.01 83 1017.4
20180522152044 75 183 0.0 5.0 0.00 0.17 0.01 81 1017.4
20180522151543 75 184 0.0 5.0 0.00 0.17 0.01 82 1017.5
20180522151043 75 181 3.0 5.0 0.00 0.17 0.01 83 1017.4
20180522150543 74 172 1.0 5.0 0.00 0.17 0.01 83 1017.4
20180522150043 74 202 2.0 6.0 0.00 0.17 0.01 83 1017.5
20180522145543 74 150 1.0 6.0 0.00 0.17 0.01 84 1017.5
20180522145043 74 178 4.0 5.0 0.00 0.17 0.01 84 1017.5
20180522144543 74 200 3.0 6.0 0.00 0.17 0.01 84 1017.5
20180522144042 73 170 3.0 6.0 0.00 0.17 0.01 85 1017.6
20180522143542 73 183 3.0 6.0 0.00 0.17 0.01 85 1017.6
20180522143042 72 147 2.0 6.0 0.00 0.17 0.01 85 1017.4
20180522142542 72 211 4.0 6.0 0.00 0.17 0.01 85 1017.4
20180522142042 72 180 3.0 6.0 0.00 0.17 0.01 86 1017.4
20180522141542 72 182 1.0 6.0 0.00 0.17 0.01 86 1017.4
20180522141041 72 184 4.0 6.0 0.00 0.17 0.01 86 1017.5
20180522140541 71 183 2.0 6.0 0.00 0.17 0.01 86 1017.5
20180522140044 71 177 1.0 5.0 0.00 0.17 0.01 86 1017.6
20180522135541 71 161 1.0 4.0 0.00 0.17 0.01 86 1017.6
20180522135041 70 161 2.0 6.0 0.00 0.17 0.01 86 1017.7
20180522134541 70 188 2.0 6.0 0.00 0.17 0.01 86 1017.7
20180522134040 70 193 1.0 6.0 0.00 0.17 0.01 86 1017.7
20180522133541 70 180 1.0 4.0 0.00 0.17 0.01 86 1017.6
20180522133040 70 185 2.0 4.0 0.00 0.17 0.01 85 1017.6
20180522132540 69 185 2.0 4.0 0.00 0.17 0.01 86 1017.6
20180522132040 69 209 2.0 4.0 0.00 0.17 0.01 85 1017.5
20180522131540 69 190 1.0 4.0 0.00 0.17 0.01 85 1017.5
20180522131040 69 194 4.0 4.0 0.00 0.17 0.01 85 1017.5
20180522130539 69 209 2.0 4.0 0.00 0.17 0.01 85 1017.5
20180522130040 69 176 3.0 4.0 0.00 0.17 0.01 85 1017.5
20180522125539 68 186 2.0 4.0 0.00 0.17 0.01 85 1017.6
20180522125040 68 196 3.0 3.0 0.00 0.17 0.01 85 1017.6
20180522124539 68 188 1.0 4.0 0.00 0.17 0.01 85 1017.5
20180522124039 68 196 1.0 4.0 0.00 0.17 0.01 85 1017.6
20180522123539 68 194 1.0 4.0 0.00 0.17 0.01 85 1017.5
20180522123039 68 186 2.0 3.0 0.00 0.17 0.01 85 1017.5
20180522122539 68 193 1.0 3.0 0.00 0.17 0.01 85 1017.6
20180522122039 68 191 2.0 3.0 0.00 0.17 0.01 85 1017.5
20180522121538 68 193 2.0 3.0 0.00 0.17 0.01 85 1017.5
20180522121038 68 219 2.0 3.0 0.00 0.17 0.01 85 1017.5
20180522120537 68 191 0.0 3.0 0.00 0.17 0.01 85 1017.4
20180522120038 68 191 3.0 3.0 0.00 0.17 0.01 85 1017.3
20180522115538 68 205 0.0 4.0 0.00 0.17 0.01 85 1017.6
20180522115038 68 206 0.0 4.0 0.00 0.17 0.01 85 1017.6
20180522114538 68 189 2.0 4.0 0.00 0.17 0.01 85 1017.6
20180522114038 68 190 0.0 3.0 0.00 0.17 0.01 85 1017.5
20180522113537 68 202 1.0 3.0 0.00 0.17 0.01 85 1017.5
20180522113037 67 200 0.0 2.0 0.00 0.17 0.01 85 1017.3
20180522112536 67 200 0.0 2.0 0.00 0.17 0.01 85 1017.3
20180522112039 67 200 0.0 3.0 0.00 0.17 0.01 85 1017.2
20180522111537 67 203 0.0 3.0 0.00 0.17 0.01 85 1017.2
20180522111036 67 211 0.0 3.0 0.00 0.17 0.01 85 1017.1
20180522110536 67 184 1.0 3.0 0.00 0.17 0.01 85 1017.1
20180522110036 67 187 2.0 2.0 0.00 0.17 0.01 85 1017.1
20180522095604 67 194 0.0 2.0 0.00 0.17 0.01 85 1016.7
20180522095104 67 194 0.0 0.0 0.00 0.17 0.01 85 1016.6
20180522094535 67 194 0.0 1.0 0.00 0.17 0.01 85 1016.6
20180522094104 67 194 0.0 1.0 0.00 0.17 0.01 85 1016.6
20180522093535 67 194 0.0 1.0 0.00 0.17 0.01 85 1016.5
20180522093103 67 194 0.0 1.0 0.00 0.17 0.01 85 1016.6
20180522092603 67 194 0.0 1.0 0.00 0.17 0.01 85 1016.6
20180522092035 67 194 0.0 1.0 0.00 0.17 0.01 85 1016.7
20180522091534 67 193 0.0 3.0 0.00 0.17 0.01 85 1016.6
20180522091103 67 193 0.0 3.0 0.00 0.17 0.01 85 1016.6
20180522090532 67 194 2.0 4.0 0.00 0.17 0.01 85 1016.6
20180522090102 67 188 0.0 4.0 0.00 0.17 0.01 85 1016.7
20180522085602 67 188 1.0 4.0 0.00 0.17 0.01 85 1016.7
20180522085102 67 183 0.0 3.0 0.00 0.17 0.01 85 1016.7
20180522084602 67 220 1.0 3.0 0.00 0.17 0.01 85 1016.7
20180522084102 67 192 0.0 2.0 0.00 0.17 0.01 85 1016.7
20180522083601 67 192 1.0 2.0 0.00 0.17 0.01 85 1016.8
20180522083102 67 190 0.0 2.0 0.00 0.17 0.01 86 1016.7
20180522082602 67 190 0.0 2.0 0.00 0.17 0.01 85 1016.8
20180522082101 67 179 0.0 2.0 0.00 0.17 0.01 85 1016.8
20180522081601 67 180 1.0 2.0 0.00 0.17 0.01 85 1016.8
20180522081101 67 180 1.0 2.0 0.00 0.17 0.01 85 1016.8
20180522080601 67 182 1.0 3.0 0.00 0.17 0.01 85 1016.7
20180522080101 67 182 1.0 3.0 0.00 0.17 0.01 86 1016.7
20180522075601 67 194 1.0 3.0 0.00 0.17 0.01 85 1016.7
20180522075100 67 194 0.0 3.0 0.00 0.17 0.01 85 1016.6
20180522074600 67 171 0.0 4.0 0.00 0.17 0.01 85 1016.6
20180522074100 67 194 0.0 4.0 0.00 0.17 0.01 85 1016.5
20180522073600 67 173 3.0 4.0 0.00 0.17 0.01 85 1016.5
20180522073100 67 186 0.0 3.0 0.00 0.17 0.01 85 1016.5
20180522072600 67 129 1.0 2.0 0.01 0.17 0.01 85 1016.5
20180522072059 67 128 0.0 2.0 0.01 0.17 0.01 85 1016.5
20180522071559 67 128 0.0 2.0 0.01 0.17 0.01 85 1016.4
20180522071059 67 128 0.0 2.0 0.01 0.17 0.01 85 1016.5
20180522070559 67 128 0.0 2.0 0.01 0.17 0.01 85 1016.5
20180522070059 67 128 0.0 2.0 0.01 0.17 0.01 85 1016.5
20180522065600 67 128 0.0 2.0 0.01 0.17 0.01 86 1016.4
20180522065059 67 108 0.0 0.0 0.01 0.17 0.01 86 1016.4
20180522064558 67 108 0.0 0.0 0.01 0.17 0.01 86 1016.3
20180522064100 67 107 0.0 1.0 0.01 0.17 0.01 85 1016.4
20180522063558 67 108 0.0 2.0 0.01 0.17 0.01 85 1016.4
20180522063058 67 108 0.0 2.0 0.01 0.17 0.01 85 1016.5
20180522062558 67 108 0.0 3.0 0.00 0.16 0.00 85 1016.6
20180522062057 67 135 0.0 3.0 0.00 0.16 0.00 85 1016.7
20180522061558 67 166 2.0 5.0 0.00 0.16 0.00 85 1016.9
20180522061057 67 166 2.0 5.0 0.00 0.16 0.00 85 1017.0
20180522060558 67 146 1.0 3.0 0.00 0.16 0.00 85 1016.9
20180522060057 67 142 2.0 3.0 0.00 0.16 0.00 85 1017.0
20180522055557 67 140 1.0 4.0 0.00 0.16 0.00 85 1016.9
20180522055057 67 163 2.0 4.0 0.00 0.16 0.00 85 1017.2
20180522054557 67 171 1.0 4.0 0.00 0.16 0.00 86 1017.4
20180522054057 67 191 0.0 2.0 0.00 0.16 0.00 85 1017.4
20180522053557 67 192 1.0 2.0 0.00 0.16 0.00 86 1017.4
20180522053056 67 192 1.0 1.0 0.00 0.16 0.00 86 1017.3
20180522052556 67 192 0.0 1.0 0.00 0.16 0.00 86 1017.4
20180522052056 67 192 0.0 0.0 0.00 0.16 0.00 86 1017.2
20180522051556 67 192 0.0 0.0 0.00 0.16 0.00 86 1017.2
20180522051056 67 191 0.0 0.0 0.00 0.16 0.00 86 1017.2
20180522050555 67 192 0.0 0.0 0.00 0.16 0.00 86 1017.3
20180522050057 67 192 0.0 0.0 0.00 0.16 0.00 86 1017.4
20180522045556 67 192 0.0 0.0 0.00 0.16 0.16 86 1017.4
20180522045055 67 192 0.0 0.0 0.00 0.16 0.16 86 1017.6
20180522044557 67 192 0.0 0.0 0.00 0.16 0.16 86 1017.7
20180522044055 67 192 0.0 0.0 0.00 0.16 0.16 86 1017.7
20180522043554 67 192 0.0 1.0 0.00 0.16 0.16 86 1017.8
20180522043055 67 192 0.0 2.0 0.00 0.16 0.16 86 1017.9
20180522042554 67 191 0.0 3.0 0.00 0.16 0.16 86 1017.8
20180522042055 67 192 1.0 3.0 0.00 0.16 0.16 86 1017.7
20180522041554 67 196 1.0 3.0 0.00 0.16 0.16 85 1017.8
20180522041054 67 193 1.0 3.0 0.00 0.16 0.16 85 1017.7
20180522040554 67 110 0.0 2.0 0.00 0.16 0.16 86 1017.7
20180522040054 67 111 0.0 3.0 0.00 0.16 0.16 86 1017.7
20180522035554 67 101 1.0 3.0 0.00 0.16 0.16 86 1017.6
20180522035054 67 101 2.0 3.0 0.00 0.16 0.16 86 1017.6
20180522034553 67 134 1.0 3.0 0.00 0.16 0.16 86 1017.6
20180522034053 67 105 0.0 2.0 0.00 0.16 0.16 86 1017.5
20180522033553 67 107 1.0 2.0 0.00 0.16 0.16 86 1017.5
20180522033053 67 108 1.0 3.0 0.00 0.16 0.16 86 1017.7
20180522032558 67 107 0.0 3.0 0.00 0.16 0.16 86 1017.6
20180522032100 67 108 2.0 3.0 0.00 0.16 0.16 86 1017.9
20180522031604 67 107 2.0 3.0 0.00 0.16 0.16 86 1017.9
20180522031053 67 113 2.0 2.0 0.00 0.16 0.16 86 1018.0
20180522030552 67 175 1.0 2.0 0.01 0.16 0.16 86 1017.9
20180522030052 67 177 1.0 2.0 0.02 0.16 0.16 86 1017.7
20180522025552 67 177 0.0 1.0 0.02 0.16 0.16 86 1017.6
20180522025051 67 177 0.0 1.0 0.03 0.16 0.16 86 1017.6
20180522024551 67 177 0.0 2.0 0.04 0.16 0.16 86 1017.6
20180522024051 67 177 0.0 2.0 0.05 0.16 0.16 86 1017.5
20180522023551 67 38 1.0 2.0 0.06 0.16 0.16 86 1017.4
20180522023051 67 17 0.0 2.0 0.11 0.16 0.16 86 1017.3
20180522022551 67 17 0.0 3.0 0.14 0.16 0.16 86 1017.4
20180522022051 67 329 0.0 3.0 0.15 0.16 0.16 86 1017.4
20180522021551 67 331 1.0 3.0 0.15 0.16 0.16 86 1017.2
20180522021053 67 30 0.0 2.0 0.16 0.16 0.16 85 1017.2
20180522020550 68 48 0.0 0.0 0.15 0.15 0.15 85 1017.5
20180522020052 68 48 0.0 3.0 0.14 0.14 0.14 85 1017.8
20180522015550 68 48 0.0 3.0 0.14 0.14 0.14 85 1017.9
20180522015050 68 48 0.0 3.0 0.13 0.13 0.13 85 1017.7
20180522014550 68 15 2.0 5.0 0.12 0.12 0.12 85 1017.6
20180522014050 68 213 0.0 5.0 0.11 0.11 0.11 85 1017.6
20180522013550 69 286 1.0 6.0 0.10 0.10 0.10 84 1017.4
20180522013050 69 166 1.0 6.0 0.05 0.05 0.05 84 1017.4
20180522012549 70 318 2.0 6.0 0.02 0.02 0.02 83 1017.5
20180522012049 71 323 1.0 6.0 0.01 0.01 0.01 82 1017.6
20180522011549 71 21 1.0 6.0 0.01 0.01 0.01 81 1017.5
20180522011048 72 304 1.0 4.0 0.00 0.00 0.00 80 1017.3
20180522010548 72 76 0.0 6.0 0.00 0.00 0.00 79 1017.2
20180522010048 72 340 2.0 6.0 0.00 0.00 0.00 78 1017.0
20180522005548 73 317 2.0 6.0 0.00 0.00 0.00 78 1017.0
20180522005048 73 311 2.0 6.0 0.00 0.00 0.00 77 1017.0
20180522004548 73 319 1.0 6.0 0.00 0.00 0.00 77 1016.9
20180522004048 74 213 1.0 6.0 0.00 0.00 0.00 76 1017.1
20180522003547 74 158 2.0 12.0 0.00 0.00 0.00 75 1017.3
20180522003048 75 273 1.0 12.0 0.00 0.00 0.00 74 1017.4
20180522002547 76 312 7.0 12.0 0.00 0.00 0.00 73 1017.1
20180522002049 76 265 0.0 11.0 0.00 0.00 0.00 72 1016.9
20180522001547 78 102 2.0 11.0 0.00 0.00 0.00 69 1017.0
20180522001047 80 296 4.0 11.0 0.00 0.00 0.00 65 1016.9
20180522000546 81 348 4.0 5.0 0.00 0.00 0.00 64 1016.6
20180522000047 82 296 0.0 4.0 0.00 0.00 0.00 63 1016.4
20180521235549 82 192 1.0 4.0 0.00 0.00 0.00 62 1016.1
20180521235048 82 192 1.0 4.0 0.00 0.00 0.00 62 1016.1
20180521234548 82 179 1.0 4.0 0.00 0.00 0.00 62 1016.0
20180521234048 82 200 2.0 4.0 0.00 0.00 0.00 62 1015.9
20180521233546 82 194 1.0 5.0 0.00 0.00 0.00 62 1015.8
20180521233046 83 177 3.0 5.0 0.00 0.00 0.00 62 1015.8
20180521232545 83 182 2.0 5.0 0.00 0.00 0.00 62 1015.9
20180521232046 83 171 1.0 5.0 0.00 0.00 0.00 62 1016.0
20180521231545 83 190 1.0 5.0 0.00 0.03 0.00 61 1016.0
20180521231045 83 188 2.0 5.0 0.00 0.05 0.00 60 1016.0
20180521230545 83 193 1.0 3.0 0.00 0.06 0.00 61 1016.0
20180521230045 83 191 2.0 5.0 0.00 0.06 0.00 60 1016.1
20180521225545 84 190 2.0 5.0 0.00 0.06 0.00 59 1016.1
20180521225045 84 182 3.0 5.0 0.00 0.06 0.00 58 1015.9
20180521224544 84 186 2.0 5.0 0.00 0.06 0.00 57 1015.9
20180521224044 84 181 3.0 7.0 0.00 0.06 0.00 56 1016.0
20180521223544 84 181 4.0 7.0 0.00 0.06 0.00 56 1015.8
20180521223048 84 174 2.0 7.0 0.00 0.06 0.00 56 1015.9
20180521222544 85 180 2.0 7.0 0.00 0.06 0.00 56 1016.1
20180521222043 85 174 3.0 5.0 0.00 0.06 0.00 57 1016.0
20180521221544 85 183 3.0 6.0 0.00 0.06 0.00 57 1015.9
20180521221043 85 187 4.0 6.0 0.00 0.06 0.00 58 1015.9
20180521220543 85 178 4.0 6.0 0.00 0.06 0.00 57 1015.9
20180521220043 85 181 2.0 4.0 0.00 0.06 0.00 57 1015.8
20180521215543 85 209 0.0 5.0 0.00 0.06 0.00 58 1015.9
20180521215043 85 159 1.0 6.0 0.00 0.06 0.00 57 1015.8
20180521214543 86 213 2.0 6.0 0.00 0.06 0.00 56 1015.7
20180521214043 86 265 1.0 7.0 0.00 0.06 0.00 57 1015.6
20180521213542 87 191 4.0 7.0 0.00 0.06 0.00 56 1015.6
20180521213042 87 182 5.0 7.0 0.00 0.06 0.00 55 1015.6
20180521212542 87 272 2.0 4.0 0.00 0.06 0.00 55 1015.7
20180521212043 86 311 2.0 4.0 0.00 0.06 0.00 57 1015.8
20180521211542 86 313 1.0 4.0 0.00 0.06 0.00 58 1015.7
20180521211041 86 169 0.0 4.0 0.00 0.06 0.00 55 1015.9
20180521210541 86 184 3.0 6.0 0.00 0.06 0.00 55 1016.0
20180521210042 86 159 0.0 6.0 0.00 0.06 0.00 53 1016.0
20180521205541 86 180 2.0 6.0 0.00 0.06 0.00 51 1016.1
20180521205041 87 172 3.0 6.0 0.00 0.06 0.00 53 1016.2
20180521204541 87 195 5.0 6.0 0.00 0.06 0.00 53 1016.3
20180521204041 87 256 4.0 6.0 0.00 0.06 0.00 55 1016.5
20180521203540 87 204 2.0 6.0 0.00 0.06 0.00 56 1016.5
20180521203041 87 194 1.0 6.0 0.00 0.06 0.00 55 1016.6
20180521202540 87 188 0.0 5.0 0.00 0.06 0.00 54 1016.7
20180521202041 86 317 2.0 4.0 0.00 0.06 0.00 54 1016.8
20180521201541 86 306 1.0 6.0 0.00 0.06 0.00 53 1016.9
20180521201040 86 192 2.0 6.0 0.00 0.06 0.00 53 1017.0
20180521200540 87 161 4.0 6.0 0.00 0.06 0.00 51 1017.1
20180521200041 87 204 3.0 6.0 0.00 0.06 0.00 56 1017.2
20180521195542 87 194 3.0 6.0 0.00 0.06 0.00 55 1017.3
20180521195039 86 279 4.0 6.0 0.00 0.06 0.00 56 1017.4